DW2715 Weather Reports


Display with metric or nautical units.
time (UTC)temp
F
wind
direction
speed
MPH
gust
MPH
rain 1hr
in
rain 24hr
in
rain mn
in
humidity
%
barometer
mb
20181215153205 42 204 0.0 0.0 0.00 0.00 0.00 58 1019.5
20181215152152 42 204 0.0 0.0 0.00 0.00 0.00 57 1019.4
20181215151211 42 204 0.0 0.0 0.00 0.00 0.00 58 1019.4
20181215150159 42 204 0.0 0.0 0.00 0.00 0.00 58 1019.4
20181215145213 43 204 0.0 0.0 0.00 0.00 0.00 58 1019.3
20181215144218 44 204 0.0 0.0 0.00 0.00 0.00 56 1019.4
20181215143221 43 204 0.0 0.0 0.00 0.00 0.00 58 1019.4
20181215142232 43 204 0.0 0.0 0.00 0.00 0.00 59 1019.2
20181215141235 44 204 0.0 1.0 0.00 0.00 0.00 58 1019.2
20181215140228 44 204 0.0 0.0 0.00 0.00 0.00 58 1019.1
20181215135220 44 204 0.0 0.0 0.00 0.00 0.00 58 1019.2
20181215134157 43 216 0.0 0.0 0.00 0.00 0.00 59 1019.2
20181215133141 42 216 0.0 2.0 0.00 0.00 0.00 59 1019.2
20181215132112 43 201 0.0 2.0 0.00 0.00 0.00 60 1019.1
20181215131049 42 245 1.0 0.0 0.00 0.00 0.00 59 1019.2
20181215130100 43 213 0.0 3.0 0.00 0.00 0.00 57 1019.2
20181215125047 43 219 0.0 3.0 0.00 0.00 0.00 58 1019.2
20181215124023 42 241 0.0 3.0 0.00 0.00 0.00 56 1019.2
20181215123019 43 191 0.0 4.0 0.00 0.00 0.00 57 1019.3
20181215122035 43 182 1.0 5.0 0.00 0.00 0.00 58 1019.3
20181215121006 42 208 0.0 5.0 0.00 0.00 0.00 59 1019.4
20181215120019 42 188 0.0 1.0 0.00 0.00 0.00 61 1019.5
20181215115007 41 188 1.0 4.0 0.00 0.00 0.00 60 1019.5
20181215114001 42 232 1.0 5.0 0.00 0.00 0.00 61 1019.6
20181215112925 41 194 2.0 5.0 0.00 0.00 0.00 61 1019.7
20181215111855 41 235 2.0 5.0 0.00 0.00 0.00 60 1019.8
20181215110902 41 232 0.0 5.0 0.00 0.00 0.00 60 1019.9
20181215105841 41 178 0.0 0.0 0.00 0.00 0.00 61 1019.9
20181215104852 40 200 0.0 2.0 0.00 0.00 0.00 62 1019.9
20181215103907 40 191 1.0 0.0 0.00 0.00 0.00 63 1020.0
20181215102904 40 210 0.0 2.0 0.00 0.00 0.00 61 1020.0
20181215101855 40 228 0.0 3.0 0.00 0.00 0.00 61 1020.1
20181215100840 39 225 0.0 0.0 0.00 0.00 0.00 66 1020.1
20181215095858 39 225 0.0 0.0 0.00 0.00 0.00 67 1020.0
20181215094859 38 225 0.0 2.0 0.00 0.00 0.00 70 1020.1
20181215093857 38 224 0.0 0.0 0.00 0.00 0.00 71 1020.2
20181215092842 37 224 0.0 3.0 0.00 0.00 0.00 72 1020.3
20181215091808 37 326 0.0 0.0 0.00 0.00 0.00 73 1020.3
20181215090813 36 326 0.0 0.0 0.00 0.00 0.00 73 1020.2
20181215085812 35 325 0.0 0.0 0.00 0.00 0.00 75 1020.2
20181215084821 35 326 0.0 0.0 0.00 0.00 0.00 77 1020.2
20181215083821 34 326 0.0 0.0 0.00 0.00 0.00 77 1020.1
20181215082803 34 326 0.0 0.0 0.00 0.00 0.00 79 1020.1
20181215081729 33 327 0.0 0.0 0.00 0.00 0.00 78 1020.0
20181215080657 32 327 0.0 0.0 0.00 0.00 0.00 79 1020.0
20181215075632 32 328 0.0 0.0 0.00 0.00 0.00 78 1019.8
20181215074607 32 328 0.0 0.0 0.00 0.00 0.00 78 1019.8
20181215073546 31 328 0.0 0.0 0.00 0.00 0.00 79 1019.7
20181215072517 31 328 0.0 0.0 0.00 0.00 0.00 80 1019.6
20181215071517 30 328 0.0 0.0 0.00 0.00 0.00 81 1019.5
20181215070530 30 328 0.0 0.0 0.00 0.00 0.00 80 1019.4
20181215065545 30 327 0.0 2.0 0.00 0.00 0.00 80 1019.5
20181215064608 30 327 0.0 0.0 0.00 0.00 0.00 81 1019.5
20181215063545 30 326 0.0 0.0 0.00 0.00 0.00 81 1019.4
20181215062523 30 326 0.0 0.0 0.00 0.00 0.00 81 1019.4
20181215061512 30 326 0.0 0.0 0.00 0.00 0.00 81 1019.4
20181215060441 30 326 0.0 0.0 0.00 0.00 0.00 81 1019.3
20181215055432 30 326 0.0 0.0 0.00 0.00 0.00 80 1019.2
20181215054439 30 326 0.0 0.0 0.00 0.00 0.00 80 1019.2
20181215053440 30 326 0.0 0.0 0.00 0.00 0.00 80 1019.1
20181215052444 30 326 0.0 0.0 0.00 0.00 0.00 79 1019.0
20181215051423 30 326 0.0 0.0 0.00 0.00 0.00 79 1019.0
20181215050405 31 326 0.0 0.0 0.00 0.00 0.00 79 1019.0
20181215045333 31 326 0.0 0.0 0.00 0.00 0.00 78 1018.9
20181215044327 31 326 0.0 0.0 0.00 0.00 0.00 79 1018.8
20181215043332 31 326 0.0 0.0 0.00 0.00 0.00 79 1018.8
20181215042257 31 326 0.0 0.0 0.00 0.00 0.00 78 1018.7
20181215041303 31 326 0.0 0.0 0.00 0.00 0.00 78 1018.7
20181215040232 31 326 0.0 0.0 0.00 0.00 0.00 78 1018.8
20181215035246 31 326 0.0 0.0 0.00 0.00 0.00 77 1018.7
20181215034219 32 326 0.0 0.0 0.00 0.00 0.00 77 1018.7
20181215033223 32 326 0.0 0.0 0.00 0.00 0.00 76 1018.6
20181215032214 32 326 0.0 0.0 0.00 0.00 0.00 76 1018.7
20181215031155 32 328 0.0 1.0 0.00 0.00 0.00 76 1018.7
20181215030207 32 331 0.0 0.0 0.00 0.00 0.00 76 1018.7
20181215025228 32 329 0.0 1.0 0.00 0.00 0.00 76 1018.7
20181215024248 32 333 0.0 0.0 0.00 0.00 0.00 76 1018.7
20181215023221 32 333 0.0 0.0 0.00 0.00 0.00 75 1018.6
20181215022207 32 333 0.0 2.0 0.00 0.00 0.00 75 1018.6
20181215021140 32 333 0.0 1.0 0.00 0.00 0.00 75 1018.6
20181215020104 33 325 0.0 1.0 0.00 0.00 0.00 74 1018.6
20181215015113 33 305 0.0 1.0 0.00 0.00 0.00 74 1018.6
20181215014104 33 34 0.0 0.0 0.00 0.00 0.00 74 1018.5
20181215013123 33 34 0.0 0.0 0.00 0.00 0.00 73 1018.5
20181215012142 33 34 0.0 1.0 0.00 0.00 0.00 73 1018.4
20181215011128 33 34 0.0 0.0 0.00 0.00 0.00 72 1018.3
20181215010119 33 34 0.0 1.0 0.00 0.00 0.00 72 1018.2
20181215005121 33 36 0.0 0.0 0.00 0.00 0.00 72 1018.2
20181215004128 33 36 0.0 0.0 0.00 0.00 0.00 71 1018.1
20181215003054 34 36 0.0 0.0 0.00 0.00 0.00 71 1017.9
20181215002021 34 35 0.0 0.0 0.00 0.00 0.00 70 1017.8
20181215001017 34 36 0.0 0.0 0.00 0.00 0.00 70 1017.8
20181214235942 34 36 0.0 2.0 0.00 0.00 0.00 70 1017.9
20181214234925 34 36 0.0 2.0 0.00 0.00 0.00 70 1017.9
20181214233906 34 36 0.0 3.0 0.00 0.00 0.00 71 1017.9
20181214232915 34 28 1.0 3.0 0.00 0.00 0.00 73 1017.9
20181214231915 33 326 0.0 1.0 0.00 0.00 0.00 73 1017.9
20181214230929 33 325 0.0 0.0 0.00 0.00 0.00 73 1018.0
20181214225855 33 325 0.0 0.0 0.00 0.00 0.00 73 1018.1
20181214224909 33 325 0.0 0.0 0.00 0.00 0.00 73 1018.2
20181214223842 34 325 0.0 0.0 0.00 0.00 0.00 73 1018.2
20181214222849 34 325 0.0 0.0 0.00 0.00 0.00 72 1018.2
20181214221837 34 325 0.0 0.0 0.00 0.00 0.00 71 1018.2
20181214220803 34 325 0.0 0.0 0.00 0.00 0.00 71 1018.2
20181214215805 35 325 0.0 1.0 0.00 0.00 0.00 72 1018.2
20181214214735 35 331 0.0 0.0 0.00 0.00 0.00 72 1018.2
20181214213658 34 355 0.0 0.0 0.00 0.00 0.00 72 1018.1
20181214212719 35 355 0.0 0.0 0.00 0.00 0.00 72 1018.1
20181214211714 35 42 0.0 0.0 0.00 0.00 0.00 72 1018.1
20181214210656 35 341 0.0 0.0 0.00 0.00 0.00 73 1018.0
20181214205641 35 321 0.0 1.0 0.00 0.00 0.00 73 1018.2
20181214204638 36 311 0.0 0.0 0.00 0.00 0.00 72 1018.1
20181214203624 36 311 0.0 1.0 0.00 0.00 0.00 71 1018.1
20181214202605 36 310 0.0 0.0 0.00 0.00 0.00 70 1018.2
20181214201616 36 5 0.0 1.0 0.00 0.00 0.00 69 1018.1
20181214200547 37 38 0.0 0.0 0.00 0.00 0.00 68 1018.1
20181214195510 37 38 0.0 1.0 0.00 0.00 0.00 68 1018.1
20181214194446 37 38 0.0 2.0 0.00 0.00 0.00 67 1017.9
20181214193429 37 39 0.0 3.0 0.00 0.00 0.00 68 1017.9
20181214192405 37 39 0.0 3.0 0.00 0.00 0.00 68 1017.8
20181214191425 37 80 0.0 0.0 0.00 0.00 0.00 68 1017.8
20181214190445 37 80 0.0 2.0 0.00 0.00 0.00 67 1017.7
20181214185454 37 80 0.0 0.0 0.00 0.00 0.00 67 1017.6
20181214184446 37 80 0.0 0.0 0.00 0.00 0.00 67 1017.5
20181214183416 38 80 0.0 0.0 0.00 0.00 0.00 66 1017.4
20181214182412 38 80 0.0 2.0 0.00 0.00 0.00 66 1017.3
20181214181352 38 80 1.0 6.0 0.00 0.00 0.00 66 1017.2
20181214180408 38 86 1.0 6.0 0.00 0.00 0.00 65 1017.1
20181214175413 38 73 1.0 9.0 0.00 0.00 0.00 65 1017.0
20181214174357 38 74 2.0 9.0 0.00 0.00 0.00 66 1016.9
20181214173415 38 79 2.0 9.0 0.00 0.00 0.00 67 1017.0
20181214172353 39 88 1.0 3.0 0.00 0.00 0.00 67 1016.9
20181214171404 39 95 0.0 5.0 0.00 0.00 0.00 67 1016.8
20181214170353 39 96 1.0 8.0 0.00 0.00 0.00 67 1016.7
20181214165325 39 91 1.0 8.0 0.00 0.00 0.00 67 1016.6
20181214164248 39 89 0.0 2.0 0.00 0.00 0.00 68 1016.5
20181214163238 40 123 0.0 0.0 0.00 0.00 0.00 68 1016.4
20181214162238 40 124 0.0 0.0 0.00 0.00 0.00 67 1016.3
20181214161224 41 124 0.0 0.0 0.00 0.00 0.00 66 1016.2
20181214160201 41 124 0.0 0.0 0.00 0.00 0.00 65 1016.1
20181214155142 42 124 0.0 0.0 0.00 0.00 0.00 64 1016.0
20181214154157 42 124 0.0 0.0 0.00 0.00 0.00 63 1016.1